Location: St. Louis
(38.6270°N, 90.1994°W)
Time: 05:01:27
(UTC-06:00)

Vanguard 2 - Pass Details

Date: 04 December 2021
Orbit: 553 x 2936 km, 32.9° (Epoch: 19 January)

Event Time Altitude Azimuth Distance (km) Brightness Sun altitude
Rises 20:28:01 0° 260° (W) 4,905 12.4 -43.9°
Reaches altitude 10° 20:33:58 10° 234° (SW) 4,471 11.8 -45.1°
Maximum altitude 20:38:26 13° 213° (SSW) 4,620 11.6 -46.0°
Drops below altitude 10° 20:43:30 10° 193° (SSW) 5,175 11.7 -46.9°
Sets 20:52:09 0° 169° (S) 6,600 12.1 -48.6°
